FW3933 Weather Reports


Display with metric or nautical units.
time (UTC)temp
F
wind
direction
speed
MPH
gust
MPH
rain 1hr
in
rain 24hr
in
rain mn
in
humidity
%
barometer
mb
20260904070512 54 211 2.0 11.0 0.00 0.08 0.08 86 1017.1
20260904070012 54 190 2.0 11.0 0.00 0.08 0.08 85 1017.1
20260904065516 54 174 4.0 11.0 0.00 0.08 0.08 85 1017.1
20260904065010 54 170 3.0 9.0 0.00 0.08 0.08 85 1017.1
20260904064509 54 182 0.0 7.0 0.00 0.08 0.08 85 1017.1
20260904064008 54 176 1.0 7.0 0.00 0.08 0.08 85 1017.2
20260904063509 54 207 1.0 7.0 0.00 0.08 0.08 85 1017.2
20260904063017 55 205 1.0 6.0 0.00 0.08 0.08 84 1017.1
20260904062507 55 205 1.0 8.0 0.00 0.08 0.08 83 1017.1
20260904062007 55 194 2.0 9.0 0.00 0.08 0.08 82 1017.1
20260904061508 55 177 1.0 9.0 0.00 0.08 0.08 82 1017.1
20260904061008 55 187 2.0 9.0 0.00 0.08 0.08 82 1017.1
20260904060508 55 173 1.0 8.0 0.00 0.08 0.08 82 1017.1
20260904060008 55 173 2.0 9.0 0.00 0.08 0.08 82 1017.0
20260904055509 55 224 2.0 10.0 0.00 0.08 0.08 82 1017.0
20260904055009 55 163 2.0 11.0 0.00 0.08 0.08 82 1017.0
20260904054508 55 205 2.0 12.0 0.00 0.08 0.08 82 1017.1
20260904054007 55 188 3.0 12.0 0.00 0.08 0.08 82 1017.1
20260904053508 55 191 2.0 7.0 0.00 0.08 0.08 83 1017.1
20260904053010 55 213 2.0 9.0 0.00 0.08 0.08 83 1017.1
20260904052508 55 174 4.0 9.0 0.00 0.08 0.08 83 1017.2
20260904052007 55 188 3.0 14.0 0.00 0.08 0.08 84 1017.2
20260904051507 55 215 4.0 12.0 0.00 0.08 0.08 84 1017.2
20260904051006 55 199 3.0 12.0 0.00 0.08 0.08 84 1017.2
20260904050508 55 178 4.0 12.0 0.00 0.08 0.08 84 1017.2
20260904050007 55 182 4.0 10.0 0.00 0.08 0.08 84 1017.1
20260904045508 55 197 3.0 11.0 0.00 0.08 0.08 84 1017.1
20260904045009 55 196 4.0 11.0 0.00 0.08 0.08 84 1017.2
20260904044508 55 223 5.0 14.0 0.00 0.08 0.08 84 1017.3
20260904044005 55 200 4.0 14.0 0.00 0.08 0.08 85 1017.3
20260904043505 55 186 3.0 11.0 0.00 0.08 0.08 86 1017.2
20260904043008 55 216 4.0 12.0 0.00 0.08 0.08 86 1017.1
20260904042505 55 184 5.0 12.0 0.00 0.08 0.08 86 1017.1
20260904042005 55 191 3.0 12.0 0.00 0.08 0.08 86 1017.1
20260904041514 56 265 0.0 7.0 0.00 0.08 0.08 86 1017.2
20260904041004 56 270 1.0 7.0 0.00 0.08 0.08 86 1017.2
20260904040504 56 262 1.0 14.0 0.00 0.08 0.08 86 1017.2
20260904040004 56 301 3.0 22.0 0.00 0.08 0.08 85 1017.1
20260904035504 56 330 2.0 25.0 0.00 0.08 0.08 85 1017.2
20260904035003 56 309 7.0 23.0 0.00 0.08 0.08 84 1017.1
20260904034505 56 296 6.0 28.0 0.00 0.08 0.08 84 1017.1
20260904034003 55 303 5.0 28.0 0.00 0.08 0.08 85 1017.1
20260904033503 55 317 4.0 24.0 0.00 0.08 0.08 85 1017.0
20260904033004 55 267 5.0 24.0 0.00 0.08 0.08 85 1017.0
20260904032503 55 321 8.0 22.0 0.00 0.08 0.08 87 1016.9
20260904032004 55 227 2.0 9.0 0.00 0.08 0.08 88 1016.9
20260904031504 55 217 1.0 16.0 0.00 0.08 0.08 89 1016.8
20260904031003 55 261 1.0 16.0 0.00 0.08 0.08 89 1016.8
20260904030504 55 193 0.0 11.0 0.00 0.08 0.08 88 1016.8
20260904030005 55 296 3.0 11.0 0.00 0.08 0.08 89 1016.8
20260904025503 55 195 2.0 11.0 0.00 0.08 0.08 87 1016.7
20260904025003 55 186 4.0 12.0 0.01 0.08 0.08 87 1016.7
20260904024505 55 181 3.0 12.0 0.01 0.08 0.08 88 1016.7
20260904024003 55 213 5.0 11.0 0.01 0.08 0.08 88 1016.8
20260904023501 55 192 3.0 11.0 0.01 0.08 0.08 88 1016.8
20260904023001 55 203 5.0 13.0 0.01 0.08 0.08 88 1016.8
20260904022503 55 212 5.0 15.0 0.01 0.08 0.08 88 1016.9
20260904022100 56 180 5.0 15.0 0.01 0.08 0.08 88 1016.9
20260904021601 56 208 4.0 25.0 0.01 0.08 0.08 87 1016.9
20260904021500 56 1 8.0 27.0 0.01 0.08 0.08 85 1016.9
20260904020604 56 282 8.0 28.0 0.01 0.08 0.08 85 1016.9
20260904015559 56 309 5.0 20.0 0.01 0.08 0.08 84 1017.0
20260904015059 56 277 3.0 19.0 0.01 0.08 0.08 85 1017.0
20260904014601 57 177 2.0 12.0 0.00 0.07 0.07 87 1017.0
20260904014059 57 263 1.0 12.0 0.00 0.07 0.07 88 1017.1
20260904013603 56 228 0.0 8.0 0.00 0.07 0.07 88 1017.0
20260904013122 56 180 1.0 8.0 0.00 0.07 0.07 89 1017.0
20260904012602 56 190 1.0 7.0 0.01 0.07 0.07 88 1017.1
20260904012058 56 202 1.0 7.0 0.01 0.07 0.07 88 1017.1
20260904011557 56 172 1.0 7.0 0.01 0.07 0.07 88 1017.1
20260904010559 56 206 2.0 8.0 0.02 0.07 0.07 88 1017.1
20260904010059 56 185 0.0 5.0 0.03 0.07 0.07 88 1017.2
20260904005559 56 210 0.0 7.0 0.04 0.07 0.07 88 1017.2
20260904005501 56 212 0.0 7.0 0.04 0.07 0.07 88 1017.2
20260904005058 56 182 1.0 7.0 0.04 0.07 0.07 88 1017.1
20260904004601 56 211 0.0 11.0 0.05 0.07 0.07 88 1017.3
20260904004059 56 280 1.0 23.0 0.05 0.07 0.07 86 1017.2
20260904003600 56 311 2.0 22.0 0.05 0.07 0.07 86 1017.3
20260904003059 56 303 3.0 22.0 0.05 0.07 0.07 87 1017.2
20260904002558 56 303 4.0 22.0 0.05 0.06 0.06 87 1017.2
20260904002058 56 308 4.0 24.0 0.05 0.06 0.06 88 1017.2
20260904001608 56 311 5.0 24.0 0.06 0.06 0.06 88 1017.3
20260904000600 56 277 3.0 13.0 0.05 0.05 0.05 88 1017.3
20260904000054 56 303 2.0 13.0 0.04 0.04 0.04 89 1017.3
20260903235553 56 313 3.0 21.0 0.04 0.04 0.04 88 1017.3
20260903235054 56 327 5.0 28.0 0.03 0.03 0.03 88 1017.4
20260903234554 56 321 8.0 35.0 0.02 0.02 0.02 88 1017.3
20260903234053 56 326 13.0 40.0 0.02 0.02 0.02 88 1017.4
20260903233552 56 339 13.0 40.0 0.02 0.02 0.02 87 1017.4
20260903233051 56 334 8.0 35.0 0.02 0.02 0.02 87 1017.3
20260903232553 56 333 10.0 35.0 0.02 0.02 0.02 87 1017.3
20260903232049 57 8 12.0 33.0 0.01 0.01 0.01 86 1017.4
20260903231556 57 292 12.0 33.0 0.00 0.00 0.00 85 1017.5
20260903230558 58 343 15.0 47.0 0.00 0.00 0.00 82 1017.4
20260903230057 59 305 11.0 36.0 0.00 0.00 0.00 81 1017.4
20260903225559 61 296 14.0 36.0 0.00 0.00 0.00 75 1017.6
20260903225057 62 258 1.0 12.0 0.00 0.00 0.00 64 1017.6
20260903224556 62 219 4.0 14.0 0.00 0.00 0.00 63 1017.4
20260903224056 63 182 7.0 14.0 0.00 0.00 0.00 62 1017.4
20260903223556 63 190 5.0 14.0 0.00 0.00 0.00 63 1017.4
20260903223056 63 190 4.0 18.0 0.00 0.00 0.00 62 1017.3
20260903222556 63 178 8.0 18.0 0.00 0.00 0.00 61 1017.3
20260903222056 64 200 7.0 16.0 0.00 0.00 0.00 61 1017.4
20260903221557 64 222 5.0 11.0 0.00 0.00 0.00 60 1017.5
20260903220545 64 178 6.0 16.0 0.00 0.00 0.00 61 1017.4
20260903220042 64 181 5.0 16.0 0.00 0.00 0.00 60 1017.5
20260903215542 64 186 4.0 17.0 0.00 0.00 0.00 60 1017.5
20260903215143 64 215 5.0 17.0 0.00 0.00 0.00 60 1017.4